Station 46054 (LLNR 198.1) - WEST SANTA BARBARA 38 NM West of Santa Barbara, CA Image indicating link to RSS feed of recent meteorological observations for station 46054


Conditions at 46054 as of
(1:30 am PDT)
0830 GMT on 05/22/2024:
     

Click on the graph icon in the table below to see a time series plot of the last five days of that observation.

5-day plot - Wind Direction Wind Direction (WDIR): NW ( 310 deg true )
5-day plot - Wind Speed Wind Speed (WSPD): 15.5 kts
5-day plot - Wind Gust Wind Gust (GST): 19.4 kts
5-day plot - Atmospheric Pressure Atmospheric Pressure (PRES):29.94 in
5-day plot - Air Temperature Air Temperature (ATMP): 52.2 °F
5-day plot - Water Temperature Water Temperature (WTMP): 53.1 °F
5-day plot - Dew Point Dew Point (DEWP): 51.1 °F
5-day plot - Wind Chill Wind Chill (CHILL): 46.8 °F
5-day plot - Wind Speed at 10 Meters Wind Speed at 10 meters (WSPD10M): 17.5 kts
5-day plot - Wind Speed at 20 Meters Wind Speed at 20 meters (WSPD20M): 19.4 kts
5-day plot -  Wind Speed, Wind Gust and Atmospheric Pressure Combined plot of Wind Speed, Gust, and Air Pressure
Supplemental Measurements
Highest 1-minute Wind Speed
Time (PDT)5-day plot - 1-Minute Wind Speed WSPD 5-day plot - 1-Minute Wind Direction WDIR
1:27 am 17.5 kts-
Previous observations
TIME
(PDT)
5-day plot - Wind Direction
WDIR
 
5-day plot - Wind Speed
WSPD
kts
5-day plot - Wind Gust
GST
kts
5-day plot - Wave Height
WVHT
ft
5-day plot - Dominant Wave Period
DPD
sec
5-day plot - Average Wave Period
APD
sec
5-day plot - Mean Wave Direction
MWD
 
5-day plot - Atmospheric Pressure
PRES
in
5-day plot - Pressure Tendency
PTDY
in
5-day plot - Air Temperature
ATMP
°F
5-day plot - Water Temperature
WTMP
°F
5-day plot - Dew Point
DEWP
°F
5-day plot - Salinity
SAL
psu
5-day plot - Visibility
VIS
nmi
5-day plot - Tide (above MLLW)
TIDE
ft
2024-05-22 01:20 am NW 15.5 19.4 6.9 106.7 NW29.94- 52.3 53.1 51.3---
2024-05-22 01:10 am NW 15.5 19.4 6.9-6.7 NW29.93- 52.2 53.2 51.1---
2024-05-22 01:00 am NW 15.5 19.4----29.94+0.00 52.3 53.2 51.3---
2024-05-22 12:50 am NW 15.5 21.4 7.2 116.4WNW29.94- 52.3 53.2 51.3---
2024-05-22 12:40 am NW 17.5 19.4----29.94- 52.2 53.1 50.9---
2024-05-22 12:30 am NW 17.5 21.4----29.94- 52.2 53.1 50.9---
2024-05-22 12:20 am NW 17.5 21.4 7.5-6.6 NW29.95- 52.3 53.1 51.3---
2024-05-22 12:10 am NW 15.5 19.4 7.5-6.6 NW29.94- 52.3 53.1 51.3---
2024-05-22 12:00 am NW 17.5 21.4----29.94+0.02 52.3 52.9 51.1---
2024-05-21 11:50 pm NW 17.5 21.4 8.2 116.5 NW29.94- 52.3 52.9 50.9---
2024-05-21 11:40 pm NW 15.5 21.4----29.93- 52.3 52.9 50.9---
2024-05-21 11:30 pm NW 17.5 21.4----29.94- 52.3 52.7 50.9---
2024-05-21 11:20 pm NW 15.5 21.4 8.2 106.6 NW29.94- 52.5 52.7 51.1---
2024-05-21 11:10 pm NW 17.5 23.3----29.94- 52.5 52.7 51.1---
2024-05-21 11:00 pm NW 19.4 25.3----29.94+0.02 52.7 52.7 51.1---
2024-05-21 10:50 pm NW 21.4 25.3 7.5 116.3 NW29.94- 52.5 52.7 50.9---
2024-05-21 10:40 pm NW 19.4 25.3----29.93- 52.7 52.9 51.1---
2024-05-21 10:30 pm NW 21.4 25.3----29.93- 52.7 52.9 51.1---
2024-05-21 10:20 pm NW 19.4 25.3 7.9 116.3 NW29.93- 52.7 52.9 51.1---
2024-05-21 10:10 pm NW 19.4 23.3 7.9-6.3 NW29.94- 52.9 52.9 51.3---
2024-05-21 10:00 pm NW 17.5 23.3----29.94+0.03 52.9 52.9 51.3---
2024-05-21 09:50 pm NW 17.5 25.3 7.5 116.1 NW29.94- 52.7 52.7 51.1---
2024-05-21 09:40 pmWNW 19.4 25.3 7.5-6.1 NW29.93- 52.9 52.7 51.3---
2024-05-21 09:30 pm NW 19.4 23.3----29.93- 52.7 52.7 51.1---
2024-05-21 09:20 pm NW 19.4 23.3 7.5 116.0 NW29.93- 52.9 52.7 51.3---
2024-05-21 09:10 pm NW 19.4 25.3 7.5-6.0 NW29.93- 52.7 52.7 51.1---
2024-05-21 09:00 pm NW 19.4 25.3----29.92+0.00 52.9 52.9 51.3---
2024-05-21 08:50 pm NW 19.4 25.3 7.9 116.3 NW29.92- 52.9 52.9 51.3---
2024-05-21 08:40 pm NW 19.4 25.3 7.9-6.3 NW29.92- 52.9 52.7 51.3---
2024-05-21 08:30 pm NW 19.4 23.3----29.92- 52.9 52.7 51.3---
2024-05-21 08:20 pm NW 19.4 25.3 7.9 116.4 NW29.92- 52.9 52.7 51.3---
2024-05-21 08:10 pm NW 19.4 23.3 7.9-6.4 NW29.92- 53.1 52.7 51.4---
2024-05-21 08:00 pm NW 17.5 23.3----29.91-0.02 53.2 52.9 51.6---
2024-05-21 07:50 pm NW 17.5 23.3 7.5 116.3 NW29.91- 53.2 52.7 51.6---
2024-05-21 07:40 pm NW 19.4 23.3----29.91- 53.2 52.7 51.6---
2024-05-21 07:30 pm NW 19.4 23.3----29.91- 53.2 52.9 51.6---
2024-05-21 07:20 pm NW 19.4 23.3 8.5 106.8 NW29.91- 53.2 52.9 51.6---
2024-05-21 07:10 pmWNW 19.4 25.3 8.5-6.8 NW29.91- 53.2 52.9 51.3---
2024-05-21 07:00 pmWNW 17.5 21.4----29.91-0.03 53.2 52.9 51.3---
2024-05-21 06:50 pmWNW 17.5 23.3 8.9 117.0 NW29.92- 53.4 52.9 51.4---
2024-05-21 06:40 pmWNW 17.5 23.3----29.91- 53.4 52.9 51.4---
2024-05-21 06:30 pmWNW 19.4 25.3----29.91- 53.4 52.9 51.4---
2024-05-21 06:20 pmWNW 19.4 23.3 7.9 116.6 NW29.91- 53.4 52.9 51.4---
2024-05-21 06:10 pmWNW 17.5 23.3 7.9-6.6 NW29.91- 53.6 52.9 51.6---
2024-05-21 06:00 pmWNW 17.5 21.4----29.91-0.03 53.6 52.9 51.4---
2024-05-21 05:50 pmWNW 17.5 21.4 8.2 116.9 NW29.92- 53.6 53.1 51.4---
2024-05-21 05:40 pmWNW 15.5 19.4----29.92- 53.8 53.1 51.6---
2024-05-21 05:30 pmWNW 15.5 19.4----29.92- 53.8 53.1 51.6---
2024-05-21 05:20 pmWNW 15.5 19.4 8.2 106.8 NW29.93- 53.8 53.1 51.6---
2024-05-21 05:10 pmWNW 15.5 19.4 8.2-6.8 NW29.93- 53.8 53.1 51.6---
2024-05-21 05:00 pmWNW 15.5 17.5----29.93-0.03 53.8 53.1 51.6---
2024-05-21 04:50 pmWNW 13.6 17.5 7.9 107.0 NW29.93- 53.8 53.1 51.6---
2024-05-21 04:40 pmWNW 13.6 17.5----29.93- 53.8 53.1 51.6---
2024-05-21 04:20 pmWNW 13.6 17.5 7.5 116.9 NW29.93- 53.6 53.1 51.6---
2024-05-21 04:10 pmWNW 13.6 17.5----29.93- 53.6 53.1 51.4---
2024-05-21 04:00 pm NW 13.6 17.5----29.94-0.02 53.6 53.1 51.4---
2024-05-21 03:50 pmWNW 13.6 17.5 8.2 117.1 NW29.94- 53.6 53.1 51.4---
2024-05-21 03:40 pm NW 13.6 19.4----29.94- 53.4 53.1 51.3---
2024-05-21 03:30 pm NW 13.6 17.5----29.95- 53.4 53.1 51.3---
2024-05-21 03:20 pm NW 15.5 19.4 9.2 117.6 NW29.95- 53.2 52.9 51.1---
2024-05-21 03:10 pm NW 13.6 19.4----29.95- 53.2 52.9 51.1---
2024-05-21 03:00 pm NW 15.5 17.5----29.95-0.01 53.1 52.9 50.9---
2024-05-21 02:50 pm NW 13.6 17.5 8.2 117.4 NW29.95- 53.1 53.1 50.9---
2024-05-21 02:40 pmWNW 13.6 17.5----29.95- 53.2 53.1 50.9---
2024-05-21 02:30 pmWNW 15.5 19.4----29.96- 53.1 52.9 50.7---
2024-05-21 02:20 pmWNW 13.6 19.4 8.9 117.6 NW29.96- 53.1 53.1 50.5---
2024-05-21 02:10 pm NW 15.5 19.4----29.96- 52.9 53.1 50.4---
2024-05-21 02:00 pmWNW 15.5 17.5----29.96+0.00 53.1 53.1 50.5---
2024-05-21 01:50 pmWNW 15.5 19.4 8.2 117.7 NW29.96- 52.9 53.1 50.4---
2024-05-21 01:40 pmWNW 15.5 19.4 8.2-7.7 NW29.96- 52.9 52.9 50.4---
2024-05-21 01:30 pmWNW 13.6 17.5----29.96- 53.1 52.9 50.5---
2024-05-21 01:20 pmWNW 13.6 17.5 7.9 117.5 NW29.96- 52.9 52.9 50.4---
2024-05-21 01:10 pm NW 13.6 17.5 7.9-7.5 NW29.96- 52.9 52.9 50.4---
2024-05-21 01:00 pm NW 13.6 17.5----29.96+0.00 52.9 52.9 50.4---
2024-05-21 12:50 pm NW 13.6 19.4 8.2 117.4 NW29.96- 52.9 52.9 50.2---
2024-05-21 12:40 pm NW 15.5 17.5----29.96- 52.7 52.7 50.0---
2024-05-21 12:30 pm NW 13.6 17.5----29.97- 52.7 52.7 50.0---
2024-05-21 12:20 pm NW 13.6 19.4 8.5 117.9 NW29.97- 52.5 52.7 49.8---
2024-05-21 12:10 pm NW 13.6 17.5 8.5-7.9 NW29.96- 52.7- 50.2---
2024-05-21 12:00 pm NW 13.6 17.5----29.96-0.01 52.7 52.7 50.0---
2024-05-21 11:50 am NW 13.6 17.5 7.5 117.5 NW29.96- 52.7 52.7 50.0---
2024-05-21 11:40 am NW 13.6 17.5----29.97- 52.9 52.7 50.2---
2024-05-21 11:30 am NW 13.6 17.5----29.97- 52.7 52.7 50.0---
2024-05-21 11:20 am NW 13.6 17.5 7.5 117.6 NW29.97- 52.9 52.7 50.2---
2024-05-21 11:10 am NW 15.5 17.5 7.5-7.6 NW29.97- 52.7 52.7 50.0---
2024-05-21 11:00 am NW 15.5 19.4----29.96+0.00 52.7 52.7 50.0---
2024-05-21 10:50 am NW 15.5 19.4 7.5 117.6 NW29.96- 52.7 52.5 49.8---
2024-05-21 10:40 am NW 13.6 17.5----29.96- 52.7 52.7 50.0---
2024-05-21 10:30 am NW 13.6 17.5----29.97- 52.7 52.7 49.8---
2024-05-21 10:20 am NW 13.6 17.5 7.9 117.7 NW29.97- 52.7 52.7 49.8---
2024-05-21 10:10 am NW 13.6 17.5 7.9-7.7 NW29.97- 52.7 52.7 49.8---
2024-05-21 10:00 am NW 13.6 17.5----29.97+0.01 52.7 52.7 50.0---
2024-05-21 09:50 am NW 13.6 15.5 7.5 107.4 NW29.97- 52.7 52.7 49.8---
2024-05-21 09:40 am NW 13.6 17.5----29.97- 52.5 52.7 49.6---
2024-05-21 09:30 am NW 13.6 15.5----29.97- 52.5 52.7 49.8---
2024-05-21 09:20 am NW 13.6 15.5 7.5 117.3 NW29.97- 52.5 52.7 49.8---
2024-05-21 09:10 am NW 13.6 15.5 7.5-7.3 NW29.97- 52.5 52.7 49.8---
2024-05-21 09:00 am NW 13.6 17.5----29.97+0.03 52.5 52.7 49.8---
2024-05-21 08:50 am NW 13.6 15.5 7.5 117.3 NW29.97- 52.5 52.7 49.8---
2024-05-21 08:40 amNNW 13.6 15.5 7.5-7.3 NW29.97- 52.5 52.7 49.8---
2024-05-21 08:30 amNNW 13.6 15.5----29.96- 52.3 52.7 49.6---
2024-05-21 08:20 amNNW 13.6 17.5 7.5 127.5 NW29.96- 52.5 52.7 49.8---
2024-05-21 08:10 amNNW 13.6 15.5 7.5-7.5 NW29.96- 52.5 52.7 49.8---
2024-05-21 08:00 amNNW 13.6 17.5----29.96+0.02 52.3 52.7 49.5---
2024-05-21 07:50 amNNW 15.5 19.4 8.2 117.6NNW29.96- 52.3 52.7 49.5---
2024-05-21 07:40 amNNW 13.6 17.5----29.96- 52.3 52.9 49.5---
2024-05-21 07:30 amNNW 15.5 17.5----29.96- 52.3 52.9 49.5---
2024-05-21 07:20 amNNW 13.6 17.5 8.5 117.6 NW29.96- 52.3 52.9 49.5---
2024-05-21 07:10 amNNW 13.6 17.5----29.96- 52.3 52.9 49.6---
2024-05-21 07:00 am NW 13.6 17.5----29.96+0.01 52.3 52.9 49.6---
2024-05-21 06:50 am NW 15.5 19.4 8.2 117.2 NW29.96- 52.5 53.1 49.8---
2024-05-21 06:40 am NW 15.5 19.4----29.96- 52.5 53.1 49.8---
2024-05-21 06:30 am NW 15.5 19.4----29.95- 52.5 53.1 49.8---
2024-05-21 06:20 am NW 15.5 19.4 7.5 106.9 NW29.95- 52.7 53.1 50.0---
2024-05-21 06:10 am NW 15.5 19.4 7.5-6.9 NW29.95- 52.5 53.2 49.8---
2024-05-21 06:00 am NW 15.5 17.5----29.95+0.01 52.7 53.2 50.0---
2024-05-21 05:50 am NW 15.5 17.5 7.9 117.2 NW29.95- 52.7 53.2 50.0---
2024-05-21 05:40 am NW 13.6 17.5----29.95- 52.7 53.2 50.0---
2024-05-21 05:30 amNNW 13.6 19.4----29.95- 52.7 53.2 50.0---
2024-05-21 05:20 amNNW 11.7 17.5 7.9 117.6 NW29.94- 52.9 53.2 50.2---
2024-05-21 05:10 amNNW 11.7 15.5----29.94- 53.1 53.2 50.4---
2024-05-21 05:00 am NW 11.7 15.5----29.94+0.01 53.1 53.2 50.4---
2024-05-21 04:50 am NW 13.6 19.4 7.9 117.0 NW29.94- 52.9 53.2 50.2---
2024-05-21 04:40 am NW 15.5 19.4----29.94- 53.1 53.4 50.4---
2024-05-21 04:30 am NW 13.6 17.5----29.94- 53.1 53.4 50.4---
2024-05-21 04:20 am NW 13.6 17.5 7.9 126.8 NW29.94- 53.1 53.4 50.4---
2024-05-21 04:10 amNNW 15.5 17.5 7.9-6.8 NW29.94- 53.1 53.4 50.4---
2024-05-21 04:00 amNNW 15.5 21.4----29.94+0.00 53.1 53.6 50.4---
2024-05-21 03:50 amNNW 15.5 21.4 7.9 116.5 NW29.94- 53.1 53.6 50.4---
2024-05-21 03:40 amNNW 17.5 21.4 7.9-6.5 NW29.94- 53.1 53.8 50.4---
2024-05-21 03:30 amNNW 17.5 23.3----29.94- 53.1 53.8 50.4---
2024-05-21 03:20 amNNW 17.5 21.4 7.5 106.4 NW29.93- 53.1 53.8 50.5---
2024-05-21 03:10 amNNW 19.4 23.3 7.5-6.4 NW29.93- 53.1 53.8 50.5---
2024-05-21 03:00 amNNW 19.4 23.3----29.94-0.02 53.1 53.8 50.4---
2024-05-21 02:50 amNNW 19.4 25.3 7.2 116.2 NW29.93- 53.2 53.8 50.5---
2024-05-21 02:40 amNNW 19.4 25.3----29.93- 53.2 53.8 50.5---
2024-05-21 02:30 amNNW 19.4 25.3----29.93- 53.2 53.8 50.5---
2024-05-21 02:20 amNNW 21.4 25.3 7.9 116.4 NW29.93- 53.2 53.8 50.5---
2024-05-21 02:10 amNNW 21.4 25.3----29.93- 53.2 53.6 50.5---
2024-05-21 02:00 am NW 21.4 27.2----29.93-0.04 53.2 53.8 50.4---
2024-05-21 01:50 amNNW 21.4 25.3 7.9 116.4 NW29.94- 53.2 53.8 50.4---
2024-05-21 01:40 am NW 19.4 25.3----29.94- 53.4 53.8 50.7---
2024-05-21 01:30 amNNW 19.4 25.3----29.94- 53.4 53.8 50.5---
2024-05-21 01:20 amNNW 21.4 27.2 7.9 116.3 NW29.94- 53.4 53.6 50.4---
2024-05-21 01:10 am NW 19.4 25.3 7.9-6.3 NW29.94- 53.4 53.6 50.5---
2024-05-21 01:00 amNNW 19.4 25.3----29.94-0.02 53.6 53.6 50.9---
2024-05-21 12:50 amNNW 19.4 23.3 8.5 116.6 NW29.95- 53.6 53.6 50.9---

Detailed Wave Summary
for 46054 as of (1:10 am PDT)
0810 GMT on 05/22/2024:

These wave data are displayed in rounded times.

     

Click on the graph icon in the table below to see a time series plot of the last five days of that observation.

5-day plot - Significant Wave Height Significant Wave Height (WVHT): 6.9 ft
5-day plot - Swell Height Swell Height (SwH): 6.2 ft
5-day plot - Swell Period Swell Period (SwP): 10.0 sec
5-day plot - Swell Direction Swell Direction (SwD): NW
5-day plot - Wind Wave Height Wind Wave Height (WWH): 3.3 ft
5-day plot - Wind Wave Period Wind Wave Period (WWP): 5.0 sec
5-day plot - Wind Wave Direction Wind Wave Direction (WWD):WNW
5-day plot - Wave Steepness Wave Steepness (STEEPNESS): AVERAGE
5-day plot - Average Wave Period Average Wave Period (APD): 6.7 sec
Previous observations
TIME
(PDT)
5-day plot - Wave Height
WVHT
ft
5-day plot - Swell Height
SwH
ft
5-day plot - Swell Period
SwP
sec
5-day plot - Swell Direction
SwD
 
5-day plot - Wind Wave Height
WWH
ft
5-day plot - Wind Wave Period
WWP
sec
5-day plot - Wind Wave Direction
WWD
 
5-day plot - Wave Steepness
STEEPNESS
 
5-day plot - Average Wave Period
APD
sec
2024-05-22 12:40 am 7.2 6.6 11.4WNW 3.6 5.6 WNW SWELL 6.4
2024-05-22 12:10 am 7.5 6.6 10.0 NW 3.9 5.9 WNW AVERAGE 6.6
2024-05-21 11:40 pm 8.2 6.9 10.8 NW 4.3 6.2 WNW SWELL 6.5
2024-05-21 11:10 pm 8.2 6.9 10.0 NW 4.3 5.9 WNW AVERAGE 6.6
2024-05-21 10:40 pm 7.5 6.2 10.8 NW 4.3 5.0 WNW SWELL 6.3
2024-05-21 10:10 pm 7.9 6.6 10.8 NW 4.3 5.6 WNW SWELL 6.3
2024-05-21 09:40 pm 7.5 6.2 10.8 NW 4.3 5.3 WNW SWELL 6.1
2024-05-21 09:10 pm 7.5 5.9 10.8 NW 4.6 6.7 NW SWELL 6.0
2024-05-21 08:40 pm 7.9 6.2 10.8 NW 4.6 6.7 NW SWELL 6.3
2024-05-21 08:10 pm 7.9 6.6 11.4 NW 4.6 7.1 NW SWELL 6.4
2024-05-21 07:40 pm 7.5 6.6 10.8 NW 4.3 4.2 WNW SWELL 6.3
2024-05-21 07:10 pm 8.5 7.2 10.0 NW 4.3 5.3 WNW AVERAGE 6.8
2024-05-21 06:40 pm 8.9 7.9 10.8 NW 3.6 5.6 WNW AVERAGE 7.0
2024-05-21 06:10 pm 7.9 6.9 10.8 NW 3.9 5.6 WNW SWELL 6.6
2024-05-21 05:40 pm 8.2 7.5 10.8 NW 3.6 5.6 WNW SWELL 6.9
2024-05-21 05:10 pm 8.2 7.2 10.0 NW 3.9 5.6 WNW AVERAGE 6.8
2024-05-21 04:40 pm 7.9 7.2 10.0 NW 3.3 5.9 WNW AVERAGE 7.0
2024-05-21 04:10 pm 7.5 6.6 10.8 NW 3.3 5.3 WNW SWELL 6.9
2024-05-21 03:40 pm 8.2 7.5 11.4 NW 3.0 5.0 WNW SWELL 7.1
2024-05-21 03:10 pm 9.2 8.5 11.4 NW 3.3 5.6 WNW SWELL 7.6
2024-05-21 02:40 pm 8.2 7.9 10.8 NW 3.3 4.0 WNW SWELL 7.4
2024-05-21 02:10 pm 8.9 8.2 10.8 NW 3.3 5.9 WNW AVERAGE 7.6
2024-05-21 01:40 pm 8.2 7.5 11.4 NW 2.6 5.3 WNW SWELL 7.7
2024-05-21 01:10 pm 7.9 7.5 11.4 NW 3.0 6.2 WNW SWELL 7.5
2024-05-21 12:40 pm 8.2 7.9 11.4 NW 3.3 5.6 WNW SWELL 7.4
2024-05-21 12:10 pm 8.5 7.9 11.4 NW 3.0 5.9 WNW SWELL 7.9
2024-05-21 11:40 am 7.5 7.2 10.8 NW 3.0 5.6 WNW SWELL 7.5
2024-05-21 11:10 am 7.5 6.9 10.8 NW 3.0 5.6 WNW SWELL 7.6
2024-05-21 10:40 am 7.5 7.2 10.8 NW 3.0 5.9 WNW SWELL 7.6
2024-05-21 10:10 am 7.9 7.2 11.4 NW 3.3 6.7 NW SWELL 7.7
2024-05-21 09:40 am 7.5 6.9 10.0 NW 3.0 5.9 NW AVERAGE 7.4
2024-05-21 09:10 am 7.5 6.9 11.4 NW 3.3 5.9 NW SWELL 7.3
2024-05-21 08:40 am 7.5 6.9 11.4 NW 3.3 5.3 NW SWELL 7.3
2024-05-21 08:10 am 7.5 7.2 12.1 NW 3.0 5.6 NW SWELL 7.5
2024-05-21 07:40 am 8.2 7.5 10.8NNW 3.3 5.9 NW SWELL 7.6
2024-05-21 07:10 am 8.5 7.5 10.8 NW 3.6 4.5 WNW SWELL 7.6
2024-05-21 06:40 am 8.2 7.2 10.8 NW 3.6 5.9 NW SWELL 7.2
2024-05-21 06:10 am 7.5 6.6 10.0 NW 3.3 5.3 NW AVERAGE 6.9
2024-05-21 05:40 am 7.9 6.9 11.4 NW 3.6 3.8 WNW SWELL 7.2
2024-05-21 05:10 am 7.9 7.5 10.8 NW 2.6 5.3 WNW SWELL 7.6
2024-05-21 04:40 am 7.9 7.2 10.8 NW 3.6 5.6 WNW SWELL 7.0
2024-05-21 04:10 am 7.9 6.9 12.1 NW 3.6 5.9 NW SWELL 6.8
2024-05-21 03:40 am 7.9 6.9 11.4 NW 3.9 6.2 NW SWELL 6.5
2024-05-21 03:10 am 7.5 6.6 10.0 NW 3.9 5.3 NW AVERAGE 6.4
2024-05-21 02:40 am 7.2 6.2 10.8 NW 3.9 5.9 WNW SWELL 6.2
2024-05-21 02:10 am 7.9 6.9 11.4 NW 3.9 5.9 WNW SWELL 6.4
2024-05-21 01:40 am 7.9 6.9 11.4 NW 3.6 5.9 WNW SWELL 6.4
2024-05-21 01:10 am 7.9 6.9 10.8 NW 3.6 5.6 WNW SWELL 6.3

Plot of wave energy versus frequency (and period)